Погода в Расселе

Новая Зеландия     35°15′38″S   174°07′22″E
темп.,
°C
ветер,
м/с
пор.,
м/с
влажн.,
%
обл.,
%
осадки,
мм/ч
давл.,
гПа
погр.,
м
24 января, вс
вс2401:00+13зюз23940 0.0 101771
04:00+12зюз23956 0.0 101793
07:00+12зюз22958 0.0 101776
10:00+20юз26634 0.0 1018884
13:00+24зюз24462 0.0 10171075
16:00+26зюз57464 0.0 10161146
19:00+22юз47631 0.0 1015876
22:00+17зюз289036 0.0 1015340
25 января, пн
пн2501:00+16з25963 0.0 1016175
04:00+16зюз279775 0.0 1015283
07:00+17зюз139747 0.0 1015136
10:00+22юз267013 0.0 1016901
13:00+24юз246261 0.1 10161018
16:00+28ююз35450 0.0 10141191
19:00+24юз366292 0.1 1014938
22:00+19юз268615 0.0 1015188
26 января, вт
вт2601:00+17зюз25979 0.0 1015155
04:00+16зюз139720 0.0 1014149
07:00+16зюз149723 0.0 1014148
10:00+22юз146612 0.0 1016539
13:00+27с334713 0.0 10151038
16:00+27с344716 0.0 10151003
19:00+23в336513 0.0 1014434
22:00+18ю25860 0.0 1015136
27 января, ср
ср2701:00+16ююз23961 0.0 101678
04:00+15ююз239713 0.0 101572
07:00+15ююз129713 0.0 101555
10:00+23в11624 0.0 1016516
13:00+24св435917 0.0 1016698
16:00+24ссв446548 0.0 1015632
19:00+22ссв2471100 0.0 1014441
22:00+18ююв129085 0.0 101647
28 января, чт
чт2801:00+15ююз238823 0.0 101698
04:00+16ююз2390100 0.0 101591
07:00+17ю119699 0.0 101528
10:00+23юз015663 0.0 1016515
13:00+26св334545 0.0 10151208
16:00+24св345726 0.0 1013537
19:00+22св236713 0.0 1013319
22:00+18ююз12890 0.0 101324